This is the latest recevied weather packets stored in our database for station/object KO4LFZ. If no packets are shown the sender has not sent any weather packets the latest 10 day(s).
| Time | Temp. | Humidity | Pressure | Rain* | Wind** | Luminosity | Snow |
|---|---|---|---|---|---|---|---|
| 1777329804 | 28.33° C | 69% | 1007.3 hPa | 0 mm | - | 180 W/m² | - |
| 1777329502 | 28.33° C | 70% | 1007.4 hPa | 0 mm | - | 177 W/m² | - |
| 1777329199 | 27.78° C | 70% | 1007.4 hPa | 0 mm | - | 123 W/m² | - |
| 1777328896 | 27.78° C | 70% | 1007.5 hPa | 0 mm | - | 114 W/m² | - |
| 1777328595 | 27.78° C | 70% | 1007.3 hPa | 0 mm | - | 116 W/m² | - |
| 1777328292 | 27.78° C | 70% | 1007.3 hPa | 0 mm | - | 107 W/m² | - |
| 1777327990 | 27.78° C | 70% | 1007.5 hPa | 0 mm | - | 124 W/m² | - |
| 1777327689 | 27.78° C | 69% | 1007.5 hPa | 0 mm | - | 104 W/m² | - |
| 1777327385 | 27.78° C | 69% | 1007.4 hPa | 0 mm | - | 103 W/m² | - |
| 1777327083 | 27.78° C | 69% | 1007.1 hPa | 0 mm | - | 88 W/m² | - |
| 1777326779 | 27.78° C | 69% | 1007.5 hPa | 0 mm | - | 96 W/m² | - |
| 1777326476 | 28.33° C | 69% | 1007.4 hPa | 0 mm | - | 113 W/m² | - |
| 1777326174 | 28.33° C | 68% | 1007.3 hPa | 0 mm | - | 141 W/m² | - |
| 1777325872 | 28.33° C | 68% | 1007.2 hPa | 0 mm | - | 152 W/m² | - |
| 1777325570 | 28.33° C | 68% | 1007.3 hPa | 0 mm | - | 143 W/m² | - |
| 1777325267 | 28.33° C | 68% | 1007.4 hPa | 0 mm | - | 161 W/m² | - |
| 1777324964 | 28.33° C | 68% | 1007.4 hPa | 0 mm | - | 154 W/m² | - |
| 1777324661 | 28.33° C | 67% | 1007.7 hPa | 0 mm | - | 196 W/m² | - |
| 1777324358 | 28.33° C | 67% | 1007.7 hPa | 0 mm | - | 196 W/m² | - |
| 1777324055 | 28.33° C | 67% | 1007.6 hPa | 0 mm | - | 167 W/m² | - |
| 1777323753 | 28.33° C | 67% | 1007.4 hPa | 0 mm | - | 165 W/m² | - |
| 1777323444 | 28.89° C | 66% | 1007.7 hPa | 0 mm | - | 161 W/m² | - |
| 1777323141 | 28.89° C | 66% | 1007.5 hPa | 0 mm | - | 223 W/m² | - |
| 1777322840 | 28.89° C | 66% | 1007.5 hPa | 0 mm | - | 236 W/m² | - |
| 1777322538 | 28.89° C | 66% | 1007.6 hPa | 0 mm | - | 255 W/m² | - |
* Rain latest hour (hover to see other rain measurements)
** Current wind speed in m/s (hover to see current wind gust speed)